Wind_Speed
7 8 9 8 8 8 8 8 8 8 8 8 9 9 9 9 9 9 9 10 10 9 10 11 10 10 9 8 9 10 9 10 10 11 11 12 12 12 12 12 12 12
7 7 8 8 7 7 6 7 7 8 8 8 8 9 8 9 9 8 8 9 9 9 9 10 9 9 8 8 9 10 10 10 10 10 11 12 12 12 13 13 13 13
6 7 7 7 7 7 6 6 6 7 7 7 8 8 8 8 8 8 8 8 8 8 8 8 8 8 7 8 9 9 10 11 10 11 11 12 12 12 13 13 13 13
5 5 6 6 6 6 6 6 6 6 6 7 7 7 7 7 7 7 7 7 7 7 7 7 7 7 7 8 9 9 10 10 10 11 12 12 12 12 12 12 13 13
4 4 5 5 6 6 6 6 7 6 6 7 7 7 7 7 6 7 7 7 7 7 7 7 7 7 7 8 9 9 10 10 10 11 12 12 12 11 12 12 13 13
3 4 4 5 5 6 6 6 6 6 7 7 7 7 7 7 7 7 8 7 7 7 7 7 7 7 8 9 9 9 10 10 10 11 12 12 12 12 11 11 12 13
4 4 5 5 5 6 6 6 6 6 7 7 7 7 7 7 7 7 8 8 8 8 7 8 8 8 8 9 9 10 10 10 11 11 12 12 12 12 12 11 12 13
5 5 5 5 5 6 6 6 6 7 7 8 8 7 7 8 8 8 8 8 8 8 8 8 8 8 8 8 9 10 11 11 11 11 12 12 12 13 13 12 12 13
6 6 6 6 6 6 7 7 7 8 8 8 9 9 8 8 9 9 9 10 10 10 10 10 10 10 10 9 10 11 11 12 12 12 13 13 14 15 15 15 15 15
7 6 7 6 7 7 8 8 9 9 9 9 10 10 10 10 11 11 12 12 12 12 13 13 13 13 13 13 13 13 13 13 13 14 14 14 15 16 17 18 19 19
7 7 7 7 8 8 9 9 10 10 10 11 11 12 12 13 13 13 13 13 14 15 16 16 16 17 17 17 17 16 16 16 16 16 16 16 17 18 20 20 20 21
8 9 9 9 9 9 10 10 11 11 12 12 12 13 14 15 15 15 15 15 16 17 18 19 19 19 19 19 19 19 19 19 19 18 19 20 20 21 22 23 23 23
10 10 9 10 10 10 11 11 12 12 13 13 14 15 16 16 17 18 17 17 18 19 20 21 21 21 21 21 20 21 21 21 21 21 21 23 24 24 24 25 26 25
10 9 10 11 11 12 12 13 14 14 14 15 15 16 17 18 19 20 20 20 21 22 22 22 23 23 22 22 23 23 23 23 23 23 23 25 26 26 26 26 28 28
9 9 10 11 12 13 14 14 15 15 15 16 17 18 18 19 21 22 23 23 23 23 24 23 23 23 22 23 24 25 25 25 24 24 25 26 26 26 26 27 28 29
9 9 10 12 13 14 14 15 16 17 17 18 19 21 21 22 22 22 22 23 23 23 22 22 21 21 21 23 26 28 28 27 26 25 26 26 26 27 27 27 27 28
10 10 11 12 13 15 16 17 19 19 19 20 21 21 21 20 20 20 20 20 20 20 19 19 19 19 20 23 26 28 29 29 27 25 24 25 25 26 27 26 27 28
10 11 12 13 15 17 18 19 20 21 21 21 20 19 18 18 17 17 17 17 17 17 18 18 18 18 21 25 27 28 30 31 28 24 23 23 23 25 26 26 27 28
10 12 13 15 17 19 19 19 20 20 19 18 17 16 16 15 15 15 15 15 16 17 18 18 19 21 25 28 30 30 31 32 31 26 24 24 25 25 26 27 27 28
12 14 16 17 18 19 18 18 17 16 16 15 15 15 14 14 14 14 15 16 17 18 20 21 21 23 27 30 32 32 32 33 32 28 25 25 25 25 26 27 27 28
14 15 16 17 17 17 16 15 15 14 14 14 13 14 14 14 15 15 16 17 19 20 21 21 21 23 26 29 30 31 33 32 29 26 24 24 24 25 26 27 28 28
14 15 15 14 14 14 14 14 14 14 13 13 13 14 15 15 16 18 19 20 20 20 20 20 21 22 25 27 28 30 32 29 25 24 24 25 25 25 26 27 28 28
12 12 12 12 13 14 14 14 14 13 13 13 14 16 17 18 18 19 20 21 20 20 19 20 21 21 22 25 27 30 31 27 24 24 24 25 25 26 27 28 28 28
9 10 11 12 13 13 13 13 13 13 13 14 16 18 19 19 19 20 20 20 19 19 20 21 21 20 21 24 25 27 28 26 24 25 25 25 27 28 29 30 30 29
8 9 10 11 12 12 12 13 14 14 15 16 17 18 19 19 19 20 20 19 19 20 20 20 20 20 22 25 24 24 27 27 25 25 26 26 27 29 30 30 31 32
8 9 10 10 11 12 13 14 14 15 16 17 17 18 19 19 19 19 20 20 20 20 20 20 20 21 23 25 22 21 26 31 29 26 26 28 28 29 29 29 30 32
Wind_Direction
9 3 0 1 4 6 4 4 4 4 6 6 3 1 357 354 349 346 347 346 344 345 345 343 342 340 341 346 349 345 341 339 333 331 331 325 324 323 320 321 320 317
10 5 2 2 1 2 358 355 359 1 5 7 3 0 356 351 350 348 348 347 346 348 347 347 348 346 345 348 346 343 340 337 333 333 330 325 323 321 320 320 317 317
9 5 3 3 359 356 353 350 356 359 2 6 3 360 355 350 348 348 348 346 346 348 348 349 351 350 348 346 340 337 335 332 332 333 329 325 324 321 320 319 316 318
1 359 356 358 356 352 351 352 356 1 2 3 360 357 354 349 346 347 348 346 346 347 347 347 348 346 343 339 335 332 330 327 328 329 326 325 325 322 320 318 316 317
343 348 346 352 356 351 350 351 355 359 358 354 351 348 349 346 346 351 351 350 348 345 343 343 341 337 336 333 331 329 328 325 324 324 323 323 325 324 320 317 316 316
318 325 329 342 351 347 346 349 351 353 351 347 343 342 345 344 345 349 349 349 348 345 344 341 336 332 330 329 327 326 326 324 322 322 321 322 323 322 319 317 316 317
298 300 305 323 336 335 335 338 340 342 341 339 336 337 339 339 341 340 337 336 336 335 336 334 332 329 325 322 320 320 320 320 318 319 319 318 318 316 314 314 314 314
281 287 293 305 318 324 324 325 328 328 329 329 329 331 332 330 331 326 319 316 313 313 315 315 315 315 312 307 305 308 310 310 309 310 310 309 309 308 307 308 307 307
270 282 290 297 306 315 317 316 316 316 317 318 320 322 322 319 316 310 304 301 299 299 300 300 300 300 297 290 289 294 297 298 299 300 301 301 301 302 304 304 303 302
267 280 291 297 306 312 312 309 308 307 307 309 310 311 310 308 304 300 298 296 295 298 301 301 302 301 298 293 291 291 291 292 293 293 294 295 296 299 303 303 302 301
268 282 293 300 305 307 307 306 306 304 303 302 301 301 302 302 300 297 296 296 299 305 308 307 305 304 302 300 299 298 295 292 289 288 289 291 293 297 301 303 302 300
283 294 300 305 306 306 305 304 304 302 301 302 301 300 298 296 297 297 296 298 303 308 309 307 306 304 301 299 298 297 294 290 287 285 286 290 293 295 298 301 301 300
298 301 303 306 305 304 302 301 302 300 298 300 300 298 297 297 301 304 302 300 302 304 304 304 303 300 297 295 295 295 292 290 288 286 285 288 290 291 293 296 297 297
301 302 303 305 303 300 299 297 296 295 295 296 296 295 297 300 305 308 306 302 301 302 301 301 300 297 294 292 294 296 294 290 288 286 284 285 287 287 287 290 292 293
300 300 303 304 301 298 298 296 296 297 296 295 298 299 301 304 305 305 305 302 302 301 301 301 298 295 293 292 295 298 296 292 289 286 285 284 284 284 283 285 287 288
299 300 302 303 303 301 303 305 306 308 303 300 303 305 306 306 305 304 303 303 303 303 303 303 300 297 295 296 299 300 299 297 292 287 285 284 282 283 283 283 284 284
300 302 302 304 307 308 310 312 313 313 308 305 305 306 306 306 306 305 306 306 307 307 308 306 304 302 302 305 308 310 308 304 297 290 287 283 281 281 281 282 283 285
303 304 304 308 312 313 315 314 313 311 310 309 309 309 309 309 308 309 310 311 313 313 313 312 310 309 312 316 318 318 317 313 306 295 288 284 281 280 281 283 286 287
305 307 311 314 315 315 314 312 311 313 314 315 315 313 312 311 311 312 314 316 318 317 316 315 312 312 316 321 322 320 319 318 312 301 290 284 281 280 281 282 285 287
311 315 316 316 315 315 315 314 317 320 322 320 318 315 314 314 314 316 317 318 319 318 317 315 313 315 318 322 324 323 322 321 315 304 291 284 280 280 281 282 284 287
317 317 316 316 319 321 321 322 325 326 324 322 320 319 318 317 318 318 318 317 318 319 319 317 317 319 322 325 327 329 330 327 318 305 294 287 283 283 284 285 287 289
318 319 322 326 329 329 328 328 328 327 326 325 324 322 320 319 319 319 319 319 320 322 322 322 323 323 326 331 334 335 336 332 320 309 300 294 289 289 290 290 290 291
328 333 337 338 335 332 330 331 330 328 328 328 327 324 321 320 321 322 323 323 322 324 325 324 324 326 331 335 337 338 339 335 325 316 308 300 295 293 293 293 293 293
350 351 347 341 336 335 335 334 331 330 330 329 327 324 323 324 325 325 325 325 323 323 323 322 323 328 334 337 338 341 344 342 332 324 317 310 306 302 298 296 294 294
3 357 351 344 340 340 338 335 332 330 330 329 328 327 327 328 329 327 325 325 323 322 323 324 326 331 337 339 340 343 347 348 342 331 326 323 319 315 310 303 298 295
6 1 356 350 345 342 337 334 333 333 333 333 332 332 332 330 330 328 325 325 326 326 327 329 330 334 337 339 340 341 345 350 349 339 331 328 324 318 313 307 302 299
Height
867 866 865 864 863 863 862 861 860 859 858 857 856 855 854 853 853 852 851 850 849 848 847 846 845 844 842 841 840 839 837 836 834 833 832 831 829 827 826 825 823 822
867 866 865 864 863 862 862 861 860 859 858 857 856 855 854 853 852 851 851 850 849 848 847 846 845 844 842 841 840 839 837 836 834 833 831 830 828 827 825 824 822 821
867 866 865 864 863 862 861 860 860 859 858 857 856 855 854 853 852 851 850 849 848 847 846 845 844 843 842 841 840 838 837 835 834 832 831 829 828 826 824 823 821 820
866 866 865 864 863 862 861 860 859 858 858 857 856 855 854 853 852 851 850 849 848 847 846 845 844 843 841 840 839 837 836 835 833 832 830 828 827 825 824 822 820 819
865 865 864 863 863 862 861 860 859 858 858 857 856 855 854 853 852 851 850 848 847 846 845 844 843 842 841 839 838 837 835 833 832 831 829 827 826 824 823 821 819 818
864 864 864 863 862 861 861 860 859 858 857 857 856 855 854 852 851 850 849 848 847 845 844 843 842 841 840 838 837 835 834 832 831 829 827 826 824 823 821 820 818 816
863 863 863 862 861 861 860 859 859 858 857 856 855 854 853 852 851 849 848 847 846 844 843 842 840 839 838 837 835 834 832 831 829 827 826 824 823 821 820 818 817 815
862 862 862 861 861 860 859 859 858 857 856 855 854 853 852 851 850 849 847 846 844 843 841 840 838 837 836 834 833 831 830 828 827 825 824 822 821 819 818 816 815 813
861 861 861 860 860 859 859 858 857 856 856 855 853 852 851 850 849 847 846 844 843 841 839 837 836 834 833 831 830 828 827 825 824 823 821 820 819 817 815 814 812 811
860 859 859 859 859 858 857 857 856 855 854 853 852 851 850 849 847 846 844 842 841 839 837 836 834 833 831 829 828 826 825 823 822 820 819 817 816 814 813 812 810 808
858 858 858 858 857 857 856 856 855 854 853 852 851 850 848 847 845 844 842 840 839 837 836 834 832 831 829 828 826 825 823 821 819 818 816 815 814 812 810 808 807 805
856 856 856 856 856 855 855 854 853 852 851 850 849 848 846 845 843 841 840 838 837 835 833 832 830 829 827 825 824 822 820 819 817 815 814 812 811 809 807 805 803 802
855 855 855 855 855 854 853 853 851 851 849 848 847 845 844 842 841 839 838 836 835 833 831 829 827 826 824 822 821 819 817 815 814 812 810 809 807 805 804 802 800 798
853 854 853 853 853 852 852 851 849 849 847 846 845 843 842 840 838 837 835 834 832 830 828 826 824 823 821 819 817 816 814 812 810 809 806 804 803 801 800 798 796 794
852 852 852 852 852 851 850 849 848 847 845 844 842 841 839 838 836 834 832 831 829 827 825 823 821 820 818 816 815 813 811 809 807 805 803 800 799 797 795 794 792 790
851 851 851 850 850 849 848 847 845 844 843 842 840 838 837 835 833 832 829 827 825 824 822 820 819 817 816 815 813 811 809 806 804 802 800 797 795 793 791 789 788 786
849 850 849 849 848 847 845 844 843 842 841 839 837 836 834 832 830 829 827 825 823 821 820 818 816 815 814 812 811 808 806 803 801 799 796 794 792 789 787 785 783 781
848 848 847 846 845 845 843 842 841 840 838 837 835 833 832 830 828 826 824 823 821 819 818 816 814 813 811 810 807 805 803 800 798 796 793 790 788 785 783 781 778 777
847 846 845 844 844 843 842 841 839 838 836 835 833 831 830 828 826 824 823 821 819 818 816 814 812 811 809 807 805 802 800 797 794 792 789 786 784 781 779 777 775 773
845 844 844 844 843 842 840 839 837 836 835 833 831 830 828 826 824 823 821 820 818 816 814 812 810 808 806 804 802 799 797 794 790 787 784 781 779 777 775 773 771 769
844 844 844 843 841 840 839 837 836 835 833 832 830 828 827 825 823 821 819 818 816 814 812 810 808 806 804 802 799 796 793 789 786 783 780 777 774 773 771 769 767 765
844 843 842 841 840 839 838 837 835 834 832 831 829 828 826 824 822 820 818 816 814 812 810 808 806 805 802 800 797 794 790 787 784 781 777 774 771 769 767 765 763 761
843 842 842 841 840 839 837 836 835 833 831 830 828 827 825 823 821 819 817 815 813 811 809 807 805 803 800 798 795 792 788 785 782 779 775 771 768 766 764 761 759 758
843 842 841 841 839 838 837 835 834 832 831 829 828 826 823 821 819 817 816 814 811 810 808 805 803 801 799 797 794 791 788 785 782 777 774 770 766 763 761 758 756 754
843 842 841 840 839 838 837 835 833 832 830 829 827 825 822 820 819 817 814 812 810 808 806 804 801 799 798 796 793 790 787 785 782 778 774 770 767 763 759 756 753 750
843 842 841 840 839 838 836 835 833 831 830 828 826 824 822 820 818 816 813 811 809 807 804 803 800 798 797 795 792 789 787 785 783 780 776 772 768 764 759 754 751 747